Torna al catalogo

STARLINK-5756

AttivoComunicazioniVLEO
NORAD 55598·PAYLOAD·🇺🇸 United States

Lanciato Feb 12, 2023 da Cape Canaveral Space Force Station

Loading…

Prossimi Passaggi (prossime 24 ore)

TLE

AggiornatoSource: CelesTrak SupGP

Epoca: Sep 15, 2026, 02:14 UTC

1 55598C 23020AF  26258.09354167 -.00019071  00000+0 -69081-3 0  2581
2 55598  43.0047   4.7102 0002110 276.1357 110.7826 15.27583772    14

Traccia STARLINK-5756 in tempo reale con AllMySat

Download on the App Store